This demonstration page uses our WeatherBlox Daily Observations layout. Learn more.

Left ArrowRight Arrow

30.21309, -93.2044

Hourly Observations for October 11, 2015

Temp ( °F °C ) Dew Point ( °F °C ) Humidity (%) Winds ( mph kmh ) Pressure ( in mb ) Visibility ( mi km ) Precip ( " mm )
12:15 am 00:15 Clear 64 17.9 57 13.7 77 77 Calm 30.06 1018 10 16 0.00 0.00
12:35 am 00:35 Clear 64 17.5 57 13.8 79 79 Calm 30.06 1018 10 16 0.00 0.00
12:55 am 00:55 Clear 63 17.2 57 13.9 81 81 Calm 30.06 1018 10 16 0.00 0.00
1:15 am 01:15 Clear 62 16.6 57 14 85 85 Calm 30.06 1018 10 16 0.00 0.00
1:35 am 01:35 Clear 62 16.9 57 14.1 84 84 Calm 30.06 1018 10 16 0.00 0.00
1:55 am 01:55 Clear 61 16 57 13.7 86 86 Calm 30.06 1018 10 16 0.00 0.00
2:15 am 02:15 Clear 57 13.8 55 12.7 93 93 SE 3 6 30.06 1018 10 16 0.00 0.00
2:35 am 02:35 Clear 57 14.1 57 13.8 98 98 Calm 30.06 1018 10 16 0.00 0.00
2:55 am 02:55 Clear 58 14.4 57 13.9 97 97 E 3 6 30.03 1017 10 16 0.00 0.00
3:15 am 03:15 Clear 59 14.8 57 14.1 96 96 Calm 30.03 1017 10 16 0.00 0.00
3:35 am 03:35 Clear 58 14.5 57 14 97 97 Calm 30.03 1017 10 16 0.00 0.00
3:55 am 03:55 Clear 58 14.4 57 13.7 96 96 Calm 30.03 1017 10 16 0.00 0.00
4:15 am 04:15 Clear 58 14.4 57 13.8 96 96 Calm 30.03 1017 10 16 0.00 0.00
4:35 am 04:35 Clear 57 14.1 56 13.6 97 97 Calm 30.03 1017 10 16 0.00 0.00
4:55 am 04:55 Clear 57 13.8 56 13.5 98 98 Calm 30.03 1017 7 11 0.00 0.00
5:15 am 05:15 Clear 58 14.3 57 13.8 97 97 Calm 30.03 1017 10 16 0.00 0.00
6:00 am 06:00 Mostly Clear 55 13 55 13 100 100 Calm 30.03 1017 10 16 0.00 0.00
6:50 am 06:50 Mostly Clear 55 13 55 13 100 100 Calm 30.03 1017 10 16 0.00 0.00
7:50 am 07:50 Mostly Sunny 55 13 55 13 100 100 Calm 30.06 1018 10 16 0.00 0.00
8:50 am 08:50 Mostly Sunny 63 17 59 15 88 88 Calm 30.06 1018 10 16 0.00 0.00
9:50 am 09:50 Mostly Sunny 66 19 61 16 83 83 ESE 6 9 30.06 1018 10 16 0.00 0.00
10:50 am 10:50 Mostly Sunny 72 22 59 15 65 65 E 5 7 30.06 1018 10 16 0.00 0.00
11:50 am 11:50 Mostly Sunny 75 24 57 14 54 54 Calm 30.06 1018 10 16 0.00 0.00
12:50 pm 12:50 Mostly Sunny 77 25 55 13 47 47 Calm 30.03 1017 10 16 0.00 0.00
1:50 pm 13:50 Mostly Sunny 81 27 55 13 42 42 SSW 5 7 30.00 1016 10 16 0.00 0.00
2:55 pm 14:55 Mostly Sunny 81 27 54 12 39 39 Calm 29.94 1014 10 16 0.00 0.00
3:55 pm 15:55 Mostly Sunny 82 28 54 12 37 37 Calm 29.94 1014 10 16 0.00 0.00
4:50 pm 16:50 Mostly Sunny 82 28 55 13 40 40 Calm 29.91 1013 10 16 0.00 0.00
5:50 pm 17:50 Mostly Sunny 81 27 57 14 45 45 SW 5 7 29.91 1013 10 16 0.00 0.00
6:55 pm 18:55 Mostly Clear 75 24 61 16 61 61 SSW 8 13 29.88 1012 10 16 0.00 0.00
7:50 pm 19:50 Mostly Clear 72 22 61 16 69 69 SSW 6 9 29.91 1013 10 16 0.00 0.00
8:50 pm 20:50 Mostly Clear 70 21 63 17 78 78 SSW 6 9 29.91 1013 10 16 0.00 0.00
9:50 pm 21:50 Mostly Clear 68 20 63 17 83 83 Calm 29.91 1013 10 16 0.00 0.00
10:15 pm 22:15 Clear 68 20.2 62 16.9 81 81 Calm 29.94 1014 10 16 0.00 0.00
10:35 pm 22:35 Clear 69 20.5 63 17.1 81 81 SSW 3 6 29.94 1014 10 16 0.00 0.00
10:55 pm 22:55 Clear 67 19.4 62 16.9 86 86 SSW 3 6 29.91 1013 10 16 0.00 0.00
11:15 pm 23:15 Clear 64 17.6 61 16.2 92 92 Calm 29.91 1013 10 16 0.00 0.00
11:35 pm 23:35 Clear 64 18 62 16.5 91 91 Calm 29.91 1013 10 16 0.00 0.00
11:55 pm 23:55 Clear 64 18 62 16.6 92 92 Calm 29.91 1013 10 16 0.00 0.00

Powered by AerisWeather